Simultaneous Nadir Overpasses (SNOs) Predictions

Prediction of SNOs near US between NOAA-19 and NPP Satellite Orbit:

Table of predicted SNOs near US for the next 10.0 days since TLE Epoch: 12/26/2012
Index Date (NOAA-19) Time (NOAA-19) NOAA-19 Lat,Lon Date (NPP) Time (NPP) NPP Lat,Lon Distance(km) Time Diff (sec)
1 01/03/2013 18:38:19 47.13, -85.49 01/03/2013 18:39:09 46.54, -88.28 222.44 50
2 01/03/2013 20:20:58 49.08,-111.84 01/03/2013 20:21:14 48.56,-114.49 202.38 16
3 01/04/2013 06:59:18 38.53, -73.98 01/04/2013 06:55:59 38.92, -76.12 190.84 199
4 01/04/2013 08:41:58 36.49,-100.15 01/04/2013 08:38:04 36.87,-102.14 182.93 234
5 01/04/2013 18:28:16 49.98, -84.00 01/04/2013 18:21:03 49.80, -84.90 67.07 433
